Terminal Aerodrome Forecast
Issued by NWS

Home | Current Version | Previous Version | Text Only | Print | Product List | Glossary On
Versions: 1 2 3 4 5 6 7 8 9 10 11 12 13 14 15 16 17 18 19 20 21
000
FTUS41 KPBZ 210300 AAA
TAFLBE
TAF AMD
KLBE 210307Z 2103/2124 21005KT 6SM -SHRA OVC035
     FM210600 22004KT 5SM -SHRA BR OVC015
     FM211500 26007KT P6SM -SHRA OVC025
     FM212100 28007KT P6SM -SHRA BKN035=

USA.gov is the U.S. government's official web portal to all federal, state and local government web resources and services.